Weather History for Middletown, PA

Change the Weather History Date:

Saturday, October 8, 2011

  Actual Average Record
Temperature  
Mean Temperature 59 °F 57 °F  
Max Temperature 73 °F 67 °F 88 °F (2007)
Min Temperature 45 °F 47 °F 31 °F (1953)
Degree Days  
Heating Degree Days 6 9  
Month to date heating degree days 85 60  
Since 1 July heating degree days 131 132  
Cooling Degree Days 0 1  
Month to date cooling degree days 0 8  
Year to date cooling degree days 1246 1001  
Growing Degree Days 8 (Base 50)    
Moisture  
Dew Point 50 °F    
Average Humidity 73    
Maximum Humidity 93    
Minimum Humidity 53    
Precipitation  
Precipitation 0.00 in 0.12 in 1.30 in (1998)
Month to date precipitation 0.65 0.98  
Year to date precipitation 62.47 31.99  
Snow  
Snow 0.00 in - - ()
Month to date snowfall 0.0  
Since 1 July snowfall 0.0  
Since 1 September snowfall 0.0  
Snow Depth 0.00 in    
Sea Level Pressure  
Sea Level Pressure 30.49 in    
Wind  
Wind Speed 0 mph (SW)    
Max Wind Speed 5 mph    
Max Gust Speed -    
Visibility 9 miles    
Events      
T = Trace of Precipitation, MM = Missing Value Source: NWS Daily Summary

Daily Weather History Graph

Daily Weather History Graph

Search for Another Location

Airport:

Trip Planner

Search our weather history database for the weather conditions in past years. The results will help you decide how hot, cold, wet, or windy it might be!

Date:

Astronomy

Oct. 08, 2011 Rise Set
Actual Time 7:10 AM EDT 6:38 PM EDT
Civil Twilight 6:42 AM EDT 7:05 PM EDT
Nautical Twilight 6:11 AM EDT 7:37 PM EDT
Astronomical Twilight 5:39 AM EDT 8:08 PM EDT
Moon 4:48 PM EDT (10/8) 3:55 AM EDT (10/8)
Length of Visible Light 12h 22m
Length of Day
11h 28m
Waxing Gibbous, 90% of the Moon is Illuminated
Oct 8
Waxing Gibbous
Oct 11
Full
Oct 19
Last Quarter
Oct 26
New
Nov 2
First Quarter

Hourly Weather History & Observations

Time (EDT) Temp. Dew Point Humidity Pressure Visibility Wind Dir Wind Speed Gust Speed Precip Events Conditions
12:56 AM 48.9 °F 46.0 °F 90% 30.49 in 10.0 mi Calm Calm - N/A   Clear
1:56 AM 48.9 °F 46.0 °F 90% 30.49 in 10.0 mi Calm Calm - N/A   Clear
2:56 AM 46.0 °F 44.1 °F 93% 30.49 in 10.0 mi Calm Calm - N/A   Clear
3:56 AM 46.0 °F 43.0 °F 89% 30.49 in 10.0 mi Calm Calm - N/A   Clear
4:56 AM 46.9 °F 44.1 °F 90% 30.50 in 9.0 mi Calm Calm - N/A   Clear
5:56 AM 46.0 °F 44.1 °F 93% 30.50 in 7.0 mi Calm Calm - N/A   Clear
6:56 AM 46.0 °F 44.1 °F 93% 30.51 in 7.0 mi Calm Calm - N/A   Clear
7:56 AM 46.9 °F 45.0 °F 93% 30.53 in 8.0 mi Calm Calm - N/A   Clear
8:56 AM 52.0 °F 48.9 °F 89% 30.54 in 8.0 mi Calm Calm - N/A   Clear
9:56 AM 54.0 °F 50.0 °F 86% 30.55 in 9.0 mi West 4.6 mph - N/A   Clear
10:56 AM 57.9 °F 51.1 °F 78% 30.54 in 10.0 mi Calm Calm - N/A   Clear
11:56 AM 64.0 °F 51.1 °F 63% 30.52 in 10.0 mi Calm Calm - N/A   Clear
12:56 PM 66.9 °F 51.1 °F 57% 30.50 in 10.0 mi Calm Calm - N/A   Clear
1:56 PM 70.0 °F 53.1 °F 55% 30.48 in 10.0 mi South 3.5 mph - N/A   Clear
2:56 PM 71.1 °F 54.0 °F 55% 30.46 in 7.0 mi Calm Calm - N/A   Clear
3:56 PM 69.8 °F 55.4 °F 60% 30.44 in 10.0 mi Calm Calm - N/A   Clear
4:56 PM 68.0 °F 55.0 °F 63% 30.43 in 10.0 mi Calm Calm - N/A   Clear
5:56 PM 66.0 °F 54.0 °F 65% 30.44 in 10.0 mi Calm Calm - N/A   Clear
6:56 PM 59.0 °F 54.0 °F 83% 30.45 in 10.0 mi Calm Calm - N/A   Clear
7:56 PM 55.9 °F 53.1 °F 90% 30.45 in 10.0 mi Calm Calm - N/A   Clear
8:56 PM 57.0 °F 53.1 °F 87% 30.46 in 10.0 mi Calm Calm - N/A   Clear
9:56 PM 55.4 °F 51.8 °F 88% 30.47 in 10.0 mi Calm Calm - N/A   Clear
10:56 PM 53.1 °F 51.1 °F 93% 30.47 in 9.0 mi Calm Calm - N/A   Clear
11:56 PM 53.6 °F 51.8 °F 94% 30.46 in 8.0 mi Calm Calm - N/A   Clear